Flag for Finland Weather past 2 weeks in Espoo, Finland

Now
36 °F

Partly cloudy.


Feels Like: 26 °F
Forecast: 43 / 50 °F
Wind: 16 mph from South

Location: Helsinki-Vantaa

Current Time: Oct 25, 2014 at 7:31:21 AM

Latest Report: Oct 25, 2014 at 6:50 AM


Visibility: N/A

Pressure: 30.24 "Hg

Humidity: 70%

Dew point: 27 °F

Location of EspooLocation

Historic Weather in Espoo — Graph

°F

Espoo temperature yesterday

Maximum temperature yesterday: 36 °F (at 3:20 PM)
Minimum temperature yesterday: 28 °F (at 12:20 AM)
Average temperature yesterday: 32 °F

Past Weeks' High & Low Weather Summary

 TemperatureHumidityPressure
High57 °F (Oct 11, 3:50 PM)100% (Oct 10, 7:50 AM)30.57 "Hg (Oct 10, 7:50 AM)
Low19 °F (Oct 18, 8:20 AM)38% (Oct 24, 5:50 PM)29.30 "Hg (Oct 20, 7:50 AM)
Average39 °F82%29.99 "Hg
* Reported Oct 10 6:20 AM — Oct 25 6:20 AM, Espoo, Weather by CustomWeather, © 2014

Note: Actual official high and low records may vary slightly from our data, if they occured in-between our weather recording intervals... More about our weather records

Advertising

Espoo weather history for previous 24 hours

 ConditionsComfort  
Time TempWeatherWind HumidityBarometerVisibility
6:20 AM
Oct 25
37 °FPassing clouds.14 mph65%30.27 "HgN/A
5:50 AM36 °FPartly cloudy.18 mph75%30.27 "HgN/A
5:20 AM36 °FPassing clouds.16 mph75%30.27 "HgN/A
4:50 AM36 °FPassing clouds.18 mph70%30.30 "HgN/A
4:20 AM36 °FPassing clouds.17 mph70%30.30 "HgN/A
3:50 AM36 °FPassing clouds.15 mph70%30.30 "HgN/A
3:20 AM36 °FPassing clouds.16 mph70%30.30 "HgN/A
2:50 AM36 °FPassing clouds.16 mph65%30.33 "HgN/A
2:20 AM36 °FPassing clouds.16 mph65%30.33 "HgN/A
1:50 AM36 °FPassing clouds.15 mph65%30.33 "HgN/A
1:20 AM34 °FPassing clouds.15 mph65%30.33 "HgN/A
12:50 AM34 °FClear.15 mph65%30.33 "Hg10 mi
12:20 AM36 °FClear.15 mph56%30.36 "Hg10 mi
11:50 PM
Oct 24
34 °FClear.16 mph60%30.36 "Hg10 mi
11:20 PM34 °FClear.17 mph60%30.36 "Hg10 mi
10:50 PM34 °FClear.18 mph56%30.36 "Hg10 mi
10:20 PM36 °FClear.18 mph52%30.36 "Hg10 mi
9:50 PM36 °FClear.18 mph52%30.39 "Hg10 mi
9:20 PM36 °FClear.17 mph52%30.39 "Hg10 mi
8:50 PM36 °FClear.18 mph52%30.39 "Hg10 mi
8:20 PM36 °FClear.21 mph48%30.39 "Hg10 mi
7:50 PM36 °FClear.17 mph44%30.39 "Hg10 mi
7:20 PM36 °FClear.17 mph41%30.39 "Hg10 mi
6:50 PM36 °FClear.15 mph38%30.42 "Hg10 mi
6:20 PM36 °FSunny.16 mph38%30.42 "Hg10 mi
5:50 PM36 °FSunny.16 mph38%30.42 "Hg10 mi
5:20 PM36 °FSunny.16 mph41%30.42 "Hg10 mi
4:50 PM36 °FSunny.17 mph41%30.45 "Hg10 mi
4:20 PM36 °FSunny.16 mph41%30.45 "Hg10 mi
3:50 PM36 °FSunny.16 mph44%30.45 "Hg10 mi
3:20 PM36 °FSunny.17 mph41%30.48 "Hg10 mi
2:50 PM34 °FSunny.17 mph44%30.48 "Hg10 mi
2:20 PM34 °FSunny.20 mph48%30.48 "Hg10 mi
1:50 PM34 °FSunny.17 mph48%30.48 "Hg10 mi
1:20 PM32 °FSunny.18 mph51%30.51 "Hg10 mi
12:50 PM32 °FSunny.18 mph55%30.51 "Hg10 mi
12:20 PM32 °FSunny.16 mph55%30.51 "Hg10 mi
11:50 AM32 °FSunny.16 mph60%30.54 "Hg10 mi
11:20 AM30 °FSunny.15 mph69%30.54 "Hg10 mi
10:50 AM30 °FSunny.15 mph69%30.51 "Hg10 mi
10:20 AM30 °FSunny.16 mph69%30.51 "Hg10 mi
9:50 AM30 °FPartly sunny.13 mph69%30.51 "HgN/A
9:20 AM30 °FPassing clouds.13 mph69%30.51 "HgN/A
8:50 AM28 °FPartly cloudy.12 mph74%30.51 "HgN/A
8:20 AM28 °FPassing clouds.13 mph74%30.51 "HgN/A
7:50 AM28 °FPassing clouds.13 mph74%30.54 "HgN/A
7:20 AM28 °FPassing clouds.14 mph80%30.54 "HgN/A
Weather by CustomWeather, © 2014

See weather overviewHow to use our weather pages